YO8KGT-13 Weather Reports


time (UTC)temp
C
wind
direction
speed
KPH
gust
KPH
rain 1hr
cm
rain 24hr
cm
rain mn
cm
humidity
%
barometer
mb
20260506015425 10 248 0.0 0.0 0.00 0.00 0.00 60 943.0
20260506014931 10 248 0.0 0.0 0.00 0.00 0.00 59 943.0
20260506014425 10 248 0.0 0.0 0.00 0.00 0.00 59 943.0
20260506012426 11 248 0.0 0.0 0.00 0.00 0.00 58 943.0
20260506011428 11 248 0.0 0.0 0.00 0.00 0.00 57 943.0
20260506010428 11 248 0.0 0.0 0.00 0.00 0.00 57 943.0
20260506005924 11 248 0.0 0.0 0.00 0.00 0.00 57 943.0
20260506005426 11 248 0.0 0.0 0.00 0.00 0.00 57 943.0
20260506004928 11 0 0.0 0.0 0.00 0.00 0.00 57 943.0
20260506004432 11 248 0.0 0.0 0.00 0.00 0.00 56 942.0
20260506003924 11 248 0.0 0.0 0.00 0.00 0.00 56 943.0
20260506003426 12 248 0.0 3.2 0.00 0.00 0.00 56 943.0
20260506002438 12 248 0.0 3.2 0.00 0.00 0.00 55 942.0
20260506001925 12 248 0.0 0.0 0.00 0.00 0.00 55 943.0
20260506001426 12 248 0.0 0.0 0.00 0.00 0.00 55 943.0
20260506000924 12 248 0.0 0.0 0.00 0.00 0.00 55 943.0
20260506000426 12 248 0.0 1.6 0.00 0.00 0.00 55 942.0
20260505235924 12 248 0.0 1.6 0.00 0.00 0.00 55 943.0
20260505234427 12 248 0.0 0.0 0.00 0.00 0.00 55 942.0
20260505233426 12 248 0.0 4.8 0.00 0.00 0.00 56 943.0
20260505232924 12 248 0.0 4.8 0.00 0.00 0.00 56 942.0
20260505232440 12 248 0.0 4.8 0.00 0.00 0.00 55 942.0
20260505231941 12 248 3.2 4.8 0.00 0.00 0.00 55 942.0
20260505230925 12 0 0.0 4.8 0.00 0.00 0.00 54 942.0
20260505225926 12 270 0.0 6.4 0.00 0.00 0.00 54 942.0
20260505225426 12 270 1.6 6.4 0.00 0.00 0.00 53 942.0
20260505224928 12 270 3.2 6.4 0.00 0.00 0.00 53 942.0
20260505224425 12 292 4.8 4.8 0.00 0.00 0.00 52 943.0
20260505223934 12 292 4.8 4.8 0.00 0.00 0.00 52 942.0
20260505223432 12 292 3.2 3.2 0.00 0.00 0.00 51 943.0
20260505222928 13 292 0.0 3.2 0.00 0.00 0.00 51 942.0
20260505221946 13 292 0.0 4.8 0.00 0.00 0.00 50 942.0
20260505221502 13 292 3.2 4.8 0.00 0.00 0.00 50 942.0
20260505220429 13 292 0.0 3.2 0.00 0.00 0.00 49 943.0
20260505213925 14 292 0.0 0.0 0.00 0.00 0.00 47 942.0
20260505213428 14 292 0.0 0.0 0.00 0.00 0.00 47 942.0
20260505212955 14 292 0.0 0.0 0.00 0.00 0.00 46 942.0
20260505212425 14 292 0.0 0.0 0.00 0.00 0.00 46 943.0
20260505211924 14 292 0.0 0.0 0.00 0.00 0.00 45 942.0
20260505211435 14 292 0.0 0.0 0.00 0.00 0.00 45 942.0
20260505210925 15 292 0.0 0.0 0.00 0.00 0.00 44 942.0
20260505210424 15 292 0.0 0.0 0.00 0.00 0.00 44 942.0
20260505205448 15 292 0.0 0.0 0.00 0.00 0.00 43 942.0
20260505204924 15 292 0.0 0.0 0.00 0.00 0.00 42 942.0
20260505204447 15 292 0.0 1.6 0.00 0.00 0.00 42 942.0
20260505203929 16 292 0.0 1.6 0.00 0.00 0.00 42 942.0
20260505195943 16 292 0.0 0.0 0.00 0.00 0.00 39 942.0
20260505195425 17 292 0.0 0.0 0.00 0.00 0.00 39 942.0
20260505194943 17 292 0.0 0.0 0.00 0.00 0.00 38 942.0
20260505194425 17 292 0.0 0.0 0.00 0.00 0.00 38 942.0
20260505192924 17 292 0.0 0.0 0.00 0.00 0.00 37 942.0
20260505192429 17 292 0.0 0.0 0.00 0.00 0.00 37 942.0
20260505191925 17 292 0.0 0.0 0.00 0.00 0.00 36 942.0
20260505191433 17 292 0.0 0.0 0.00 0.00 0.00 36 942.0
20260505190924 17 292 0.0 0.0 0.00 0.00 0.00 35 942.0
20260505185928 18 292 0.0 0.0 0.00 0.00 0.00 34 942.0
20260505185425 18 292 0.0 0.0 0.00 0.00 0.00 34 942.0
20260505184924 18 292 0.0 0.0 0.00 0.00 0.00 33 942.0
20260505183925 18 292 0.0 0.0 0.00 0.00 0.00 33 942.0
20260505183425 19 292 0.0 0.0 0.00 0.00 0.00 33 942.0
20260505182428 19 292 0.0 1.6 0.00 0.00 0.00 32 942.0
20260505181930 20 292 0.0 1.6 0.00 0.00 0.00 32 942.0
20260505181429 20 292 0.0 1.6 0.00 0.00 0.00 32 942.0
20260505180925 20 292 0.0 1.6 0.00 0.00 0.00 31 942.0
20260505175938 20 292 0.0 3.2 0.00 0.00 0.00 31 942.0
20260505175425 20 292 3.2 3.2 0.00 0.00 0.00 31 942.0
20260505174447 21 292 0.0 4.8 0.00 0.00 0.00 31 941.0
20260505173924 21 292 0.0 4.8 0.00 0.00 0.00 30 941.0
20260505173424 21 292 4.8 4.8 0.00 0.00 0.00 30 941.0
20260505172425 21 315 0.0 1.6 0.00 0.00 0.00 30 941.0
20260505170925 22 315 0.0 1.6 0.00 0.00 0.00 29 941.0
20260505170428 22 22 0.0 1.6 0.00 0.00 0.00 29 941.0
20260505165437 22 22 0.0 0.0 0.00 0.00 0.00 28 941.0
20260505164925 22 22 0.0 0.0 0.00 0.00 0.00 28 941.0
20260505164424 23 22 0.0 0.0 0.00 0.00 0.00 27 941.0
20260505163924 23 22 0.0 0.0 0.00 0.00 0.00 26 941.0
20260505162925 23 22 0.0 0.0 0.00 0.00 0.00 25 941.0
20260505161925 23 22 0.0 3.2 0.00 0.00 0.00 24 941.0
20260505161430 23 22 0.0 3.2 0.00 0.00 0.00 24 941.0
20260505160930 23 22 0.0 3.2 0.00 0.00 0.00 23 941.0
20260505160425 24 22 0.0 0.0 0.00 0.00 0.00 23 941.0
20260505152924 25 68 0.0 1.6 0.00 24.97 0.00 21 941.0
20260505152423 25 68 0.0 1.6 0.00 0.00 0.00 21 941.0
20260505151425 25 45 0.0 1.6 0.00 0.00 0.00 21 941.0
20260505150931 26 45 0.0 1.6 0.00 0.00 0.00 21 941.0
20260505140434 28 45 0.0 0.0 0.00 0.00 0.00 20 942.0
20260505124923 31 292 0.0 1.6 0.00 0.00 0.00 23 942.0
20260505124425 31 68 0.0 3.2 0.00 0.00 0.00 22 943.0
20260505123942 31 22 0.0 3.2 0.00 0.00 0.00 22 943.0
20260505123425 31 90 0.0 4.8 0.00 0.00 0.00 23 943.0
20260505122423 31 0 0.0 0.0 0.00 0.00 0.00 24 943.0
20260505121424 31 45 0.0 1.6 0.00 0.00 0.00 24 943.0
20260505120928 30 0 0.0 9.7 0.00 0.00 0.00 24 943.0
20260505115926 31 22 9.7 9.7 0.00 0.00 0.00 24 943.0
20260505115429 31 45 0.0 4.8 0.00 0.00 0.00 25 943.0
20260505114425 31 22 4.8 4.8 0.00 0.00 0.00 24 943.0
20260505113924 31 135 0.0 3.2 0.00 0.00 0.00 25 943.0
20260505113443 31 135 0.0 3.2 0.00 0.00 0.00 25 944.0
20260505112923 31 135 3.2 3.2 0.00 0.00 0.00 25 943.0
20260505112424 31 22 0.0 0.0 0.00 0.00 0.00 26 944.0
20260505111923 31 22 0.0 4.8 0.00 0.00 0.00 25 944.0
20260505111444 31 112 0.0 4.8 0.00 0.00 0.00 26 944.0
20260505110425 31 338 0.0 1.6 0.00 0.00 0.00 26 944.0
20260505101922 30 22 0.0 3.2 0.00 0.00 0.00 26 944.0
20260505101424 30 22 0.0 3.2 0.00 0.00 0.00 27 944.0
20260505100924 30 22 0.0 3.2 0.00 0.00 0.00 28 944.0
20260505095924 28 22 0.0 6.4 0.00 0.00 0.00 27 944.0
20260505094924 28 22 0.0 6.4 0.00 0.00 0.00 29 945.0
20260505094432 28 22 4.8 4.8 0.00 0.00 0.00 30 944.0
20260505093926 28 22 0.0 6.4 0.00 0.00 0.00 31 945.0
20260505093422 27 22 0.0 6.4 0.00 0.00 0.00 31 945.0
20260505092941 27 22 4.8 6.4 0.00 0.00 0.00 31 945.0
20260505092446 27 0 0.0 4.8 0.00 0.00 0.00 33 945.0
20260505091424 27 0 0.0 3.2 0.00 0.00 0.00 34 945.0
20260505090928 26 22 3.2 3.2 0.00 0.00 0.00 35 945.0
20260505090424 26 0 0.0 3.2 0.00 0.00 0.00 35 945.0
20260505085930 26 0 0.0 3.2 0.00 0.00 0.00 36 945.0
20260505085423 26 0 3.2 3.2 0.00 0.00 0.00 36 945.0
20260505084926 26 0 0.0 3.2 0.00 0.00 0.00 36 945.0
20260505084437 26 0 0.0 3.2 0.00 0.00 0.00 36 945.0
20260505083935 25 0 0.0 0.0 0.00 0.00 0.00 37 945.0
20260505083423 25 22 0.0 3.2 0.00 0.00 0.00 37 946.0
20260505082923 25 0 0.0 3.2 0.00 0.00 0.00 37 946.0
20260505082012 25 0 3.2 3.2 0.00 0.00 0.00 38 946.0
20260505080923 24 0 0.0 0.0 0.00 0.00 0.00 39 946.0
20260505080423 24 0 0.0 0.0 0.00 0.00 0.00 39 946.0
20260505074923 23 0 0.0 4.8 0.00 0.00 0.00 40 946.0
20260505074423 23 0 0.0 4.8 0.00 0.00 0.00 41 946.0
20260505072925 22 0 0.0 0.0 0.00 0.00 0.00 43 946.0
20260505072426 22 0 0.0 0.0 0.00 0.00 0.00 44 946.0
20260505071923 22 0 0.0 0.0 0.00 0.00 0.00 45 946.0
20260505071427 22 22 0.0 0.0 0.00 0.00 0.00 45 946.0
20260505070928 22 22 0.0 0.0 0.00 0.00 0.00 45 946.0
20260505065432 21 68 0.0 3.2 0.00 0.00 0.00 47 946.0
20260505064423 21 22 0.0 0.0 0.00 0.00 0.00 48 946.0
20260505063924 20 22 0.0 0.0 0.00 0.00 0.00 49 946.0
20260505061926 18 22 0.0 0.0 0.00 0.00 0.00 53 946.0
20260505061423 18 22 0.0 0.0 0.00 0.00 0.00 54 946.0
20260505060924 17 22 0.0 0.0 0.00 0.00 0.00 54 946.0
20260505060452 17 22 0.0 0.0 0.00 0.00 0.00 55 946.0
20260505055924 17 22 0.0 3.2 0.00 0.00 0.00 56 946.0
20260505054934 16 22 0.0 3.2 0.00 0.00 0.00 57 946.0
20260505053924 15 22 0.0 0.0 0.00 0.00 0.00 60 946.0
20260505053423 15 22 0.0 0.0 0.00 0.00 0.00 60 946.0
20260505052944 15 22 0.0 0.0 0.00 0.00 0.00 60 946.0
20260505051948 14 22 0.0 1.6 0.00 0.00 0.00 60 946.0
20260505051424 14 22 0.0 1.6 0.00 0.00 0.00 60 946.0
20260505050922 13 22 0.0 1.6 0.00 0.00 0.00 61 946.0
20260505050427 13 22 0.0 0.0 0.00 0.00 0.00 62 946.0
20260505041423 12 22 0.0 0.0 0.00 0.00 0.00 62 946.0
20260505040428 12 22 0.0 0.0 0.00 0.00 0.00 63 946.0
20260505035928 12 22 0.0 0.0 0.00 0.00 0.00 63 946.0
20260505034933 11 22 0.0 0.0 0.00 0.00 0.00 64 945.0
20260505034426 11 22 0.0 0.0 0.00 0.00 0.00 64 945.0
20260505033937 11 22 0.0 0.0 0.00 0.00 0.00 64 945.0
20260505032927 10 22 0.0 0.0 0.00 0.00 0.00 65 945.0
20260505031424 10 22 0.0 0.0 0.00 0.00 0.00 66 945.0
20260505030424 10 22 0.0 0.0 0.00 0.00 0.00 67 945.0
20260505025432 10 22 0.0 0.0 0.00 0.00 0.00 67 945.0
20260505024924 10 22 0.0 0.0 0.00 0.00 0.00 67 945.0
20260505024422 9 22 0.0 1.6 0.00 0.00 0.00 67 945.0
20260505023926 9 22 0.0 3.2 0.00 0.00 0.00 67 945.0
20260505023435 9 22 0.0 3.2 0.00 0.00 0.00 67 945.0
20260505021948 9 22 0.0 3.2 0.00 0.00 0.00 67 945.0